Regional Weather Roundup
Issued by NWS

Home | Current Version | Previous Version | Graphics & Text | Print | Product List | Glossary On
Versions: 1 2 3 4 5 6 7 8 9 10 11 12 13 14 15 16 17 18 19 20 21 22 23 24 25 26 27 28 29 30 31 32 33 34 35 36 37 38 39 40 41 42 43 44 45 46 47 48 49 50
000
ASUS43 KBIS 222002
RWRND

NORTH DAKOTA REGIONAL WEATHER ROUNDUP
NATIONAL WEATHER SERVICE BISMARCK ND
300 PM CDT SAT APR 22 2017

NOTE: "FAIR" INDICATES FEW OR NO CLOUDS BELOW 12,000 FEET WITH NO
SIGNIFICANT WEATHER AND/OR OBSTRUCTIONS TO VISIBILITY.


NDZ001>003-009>011-017-222100-
NORTHWEST NORTH DAKOTA

CITY           SKY/WX    TMP DP  RH WIND       PRES   REMARKS
WILLISTON      CLOUDY    54  42  64 E9        30.17F
MINOT          CLOUDY    49  38  65 N17       30.17F
MINOT AFB      CLOUDY    47  35  65 N16       30.19S
$$

NDZ018>021-031>035-040>046-222100-
SOUTHWEST NORTH DAKOTA

CITY           SKY/WX    TMP DP  RH WIND       PRES   REMARKS
BISMARCK       CLOUDY    67  37  33 W12       30.12F
DICKINSON      PTSUNNY   62  40  44 W13G21    30.12F
GARRISON         N/A     55  41  59 NE12      30.14F
HETTINGER ARPT PTSUNNY   63  41  44 W13G21    30.16F
$$

NDZ004>008-012>016-024-026-027-054-222100-
NORTHEAST NORTH DAKOTA

CITY           SKY/WX    TMP DP  RH WIND       PRES   REMARKS
GRAND FORKS    PTSUNNY   53  41  63 N16       30.18S
GRND FRKS AFB  CLOUDY    49  39  66 N17       30.19S
DEVILS LAKE    CLOUDY    48  38  68 NE16      30.19S
$$

NDZ022-023-025-028>030-036>039-047>053-222100-
SOUTHEAST NORTH DAKOTA

CITY           SKY/WX    TMP DP  RH WIND       PRES   REMARKS
FARGO          MOSUNNY   68  36  30 W14       30.11F
JAMESTOWN      PTSUNNY   67  36  31 W14       30.12F
$$





USA.gov is the U.S. government's official web portal to all federal, state and local government web resources and services.